K0FJ-1 Weather Reports


Display with metric or nautical units.
time (UTC)temp
F
wind
direction
speed
MPH
gust
MPH
rain 1hr
in
rain 24hr
in
rain mn
in
humidity
%
barometer
mb
20240226135044 38 223 3.0 6.0 0.00 0.00 0.00 48 1006.2
20240226134535 37 229 3.0 6.0 0.00 0.00 0.00 49 1006.1
20240226134040 37 243 3.0 6.0 0.00 0.00 0.00 49 1006.2
20240226133533 37 213 3.0 5.0 0.00 0.00 0.00 50 1006.2
20240226133041 36 210 3.0 6.0 0.00 0.00 0.00 50 1006.3
20240226132535 36 227 3.0 6.0 0.00 0.00 0.00 50 1006.4
20240226132023 36 212 2.0 6.0 0.00 0.00 0.00 51 1006.3
20240226131542 36 213 2.0 4.0 0.00 0.00 0.00 51 1006.2
20240226131036 35 214 3.0 5.0 0.00 0.00 0.00 52 1006.2
20240226130529 35 209 3.0 5.0 0.00 0.00 0.00 51 1006.0
20240226130035 35 215 4.0 5.0 0.00 0.00 0.00 51 1006.0
20240226125522 35 215 3.0 5.0 0.00 0.00 0.00 51 1006.0
20240226125045 35 216 3.0 5.0 0.00 0.00 0.00 50 1006.2
20240226124546 35 207 3.0 6.0 0.00 0.00 0.00 49 1006.2
20240226124033 36 209 2.0 6.0 0.00 0.00 0.00 48 1006.3
20240226123543 36 219 2.0 6.0 0.00 0.00 0.00 47 1006.4
20240226123037 37 205 3.0 8.0 0.00 0.00 0.00 46 1006.6
20240226122523 38 234 3.0 8.0 0.00 0.00 0.00 45 1006.6
20240226122031 38 241 3.0 7.0 0.00 0.00 0.00 44 1006.6
20240226121554 38 248 2.0 7.0 0.00 0.00 0.00 44 1006.5
20240226121025 38 239 2.0 7.0 0.00 0.00 0.00 44 1006.6
20240226120546 38 259 3.0 7.0 0.00 0.00 0.00 44 1006.6
20240226120034 37 250 3.0 6.0 0.00 0.00 0.00 46 1006.8
20240226115539 36 252 3.0 7.0 0.00 0.00 0.00 47 1006.8
20240226115039 36 254 1.0 4.0 0.00 0.00 0.00 47 1006.9
20240226114530 37 241 2.0 5.0 0.00 0.00 0.00 47 1007.0
20240226114023 37 236 2.0 5.0 0.00 0.00 0.00 47 1006.9
20240226113530 37 257 2.0 4.0 0.00 0.00 0.00 46 1007.0
20240226113028 37 234 3.0 6.0 0.00 0.00 0.00 45 1007.1
20240226112548 38 217 2.0 7.0 0.00 0.00 0.00 45 1007.1
20240226112038 38 208 4.0 6.0 0.00 0.00 0.00 46 1007.1
20240226111539 38 214 2.0 6.0 0.00 0.00 0.00 46 1007.2
20240226111028 37 207 3.0 6.0 0.00 0.00 0.00 46 1007.3
20240226110537 37 245 2.0 4.0 0.00 0.00 0.00 46 1007.4
20240226110031 37 262 2.0 5.0 0.00 0.00 0.00 47 1007.5
20240226105527 37 215 3.0 5.0 0.00 0.00 0.00 47 1007.4
20240226105038 37 211 2.0 7.0 0.00 0.00 0.00 47 1007.4
20240226104540 38 262 3.0 7.0 0.00 0.00 0.00 46 1007.5
20240226104033 38 223 5.0 7.0 0.00 0.00 0.00 46 1007.6
20240226103529 38 271 3.0 9.0 0.00 0.00 0.00 45 1007.4
20240226103057 39 260 3.0 9.0 0.00 0.00 0.00 45 1007.4
20240226102546 39 224 6.0 8.0 0.00 0.00 0.00 45 1007.5
20240226102053 39 219 4.0 7.0 0.00 0.00 0.00 45 1007.5
20240226101542 39 221 5.0 7.0 0.00 0.00 0.00 45 1007.6
20240226101031 39 219 4.0 9.0 0.00 0.00 0.00 45 1007.7
20240226100535 39 225 4.0 13.0 0.00 0.00 0.00 44 1007.8
20240226100039 39 224 7.0 13.0 0.00 0.00 0.00 43 1008.0
20240226095527 40 219 3.0 8.0 0.00 0.00 0.00 43 1007.8
20240226095032 40 213 3.0 6.0 0.00 0.00 0.00 43 1007.8
20240226094552 39 242 3.0 8.0 0.00 0.00 0.00 43 1007.7
20240226094044 39 248 4.0 8.0 0.00 0.00 0.00 44 1007.7
20240226093529 38 242 2.0 4.0 0.00 0.00 0.00 46 1007.7
20240226093041 38 240 2.0 4.0 0.00 0.00 0.00 46 1007.8
20240226092527 37 221 2.0 4.0 0.00 0.00 0.00 47 1007.8
20240226092036 37 239 2.0 4.0 0.00 0.00 0.00 48 1007.9
20240226091543 36 246 1.0 3.0 0.00 0.00 0.00 49 1007.9
20240226091030 36 233 1.0 4.0 0.00 0.00 0.00 50 1008.0
20240226090531 36 236 2.0 4.0 0.00 0.00 0.00 50 1008.1
20240226090037 35 234 2.0 5.0 0.00 0.00 0.00 50 1008.2
20240226085531 35 238 2.0 5.0 0.00 0.00 0.00 51 1008.2
20240226085029 35 218 2.0 4.0 0.00 0.00 0.00 51 1008.3
20240226084554 35 218 3.0 4.0 0.00 0.00 0.00 51 1008.3
20240226084041 35 219 2.0 5.0 0.00 0.00 0.00 51 1008.3
20240226083549 35 215 3.0 6.0 0.00 0.00 0.00 51 1008.4
20240226083030 35 215 4.0 6.0 0.00 0.00 0.00 51 1008.4
20240226082536 35 216 2.0 5.0 0.00 0.00 0.00 50 1008.4
20240226082046 35 225 3.0 5.0 0.00 0.00 0.00 50 1008.5
20240226081539 35 220 3.0 5.0 0.00 0.00 0.00 49 1008.7
20240226081025 35 222 3.0 6.0 0.00 0.00 0.00 49 1008.6
20240226080542 36 219 4.0 6.0 0.00 0.00 0.00 48 1008.8
20240226080036 36 252 2.0 5.0 0.00 0.00 0.00 47 1008.7
20240226075558 37 241 2.0 5.0 0.00 0.00 0.00 46 1008.8
20240226075042 37 230 3.0 5.0 0.00 0.00 0.00 46 1008.7
20240226074544 37 246 1.0 5.0 0.00 0.00 0.00 45 1008.8
20240226074032 37 246 2.0 5.0 0.00 0.00 0.00 45 1008.8
20240226073543 37 262 2.0 5.0 0.00 0.00 0.00 45 1008.9
20240226073033 37 253 2.0 5.0 0.00 0.00 0.00 45 1008.9
20240226072529 38 238 2.0 5.0 0.00 0.00 0.00 44 1009.0
20240226072040 38 215 3.0 5.0 0.00 0.00 0.00 44 1009.0
20240226071527 38 240 2.0 6.0 0.00 0.00 0.00 44 1009.2
20240226071035 38 221 3.0 7.0 0.00 0.00 0.00 44 1009.2
20240226070552 38 213 3.0 7.0 0.00 0.00 0.00 43 1009.2
20240226070044 38 207 4.0 6.0 0.00 0.00 0.00 43 1009.2
20240226065548 38 211 3.0 5.0 0.00 0.00 0.00 42 1009.2
20240226065029 39 225 3.0 5.0 0.00 0.00 0.00 41 1009.3
20240226064527 39 199 3.0 4.0 0.00 0.00 0.00 40 1009.3
20240226064024 40 219 1.0 4.0 0.00 0.00 0.00 39 1009.5
20240226063538 40 228 2.0 5.0 0.00 0.00 0.00 38 1009.4
20240226063100 41 228 3.0 5.0 0.00 0.00 0.00 37 1009.5
20240226062535 41 209 2.0 4.0 0.00 0.00 0.00 36 1009.5
20240226062048 41 255 2.0 7.0 0.00 0.00 0.00 35 1009.5
20240226061535 41 259 3.0 7.0 0.00 0.00 0.00 35 1009.5
20240226061037 41 253 3.0 7.0 0.00 0.00 0.00 34 1009.7
20240226060526 41 254 2.0 5.0 0.00 0.00 0.00 35 1009.8
20240226060031 41 262 4.0 5.0 0.00 0.00 0.00 35 1009.6
20240226055540 41 207 3.0 6.0 0.00 0.00 0.00 35 1009.6
20240226055030 41 225 4.0 6.0 0.00 0.00 0.00 35 1009.7
20240226054554 41 233 2.0 5.0 0.00 0.00 0.00 35 1009.7
20240226054038 41 277 2.0 5.0 0.00 0.00 0.00 35 1009.9
20240226053526 41 231 2.0 6.0 0.00 0.00 0.00 34 1009.9
20240226053037 41 208 3.0 6.0 0.00 0.00 0.00 34 1009.8
20240226052525 42 209 3.0 4.0 0.00 0.00 0.00 33 1010.0
20240226052035 42 212 1.0 4.0 0.00 0.00 0.00 32 1009.9
20240226051541 42 212 2.0 4.0 0.00 0.00 0.00 31 1009.9
20240226051036 43 201 3.0 4.0 0.00 0.00 0.00 31 1009.9
20240226050523 43 208 2.0 4.0 0.00 0.00 0.00 31 1009.9
20240226050050 43 202 1.0 3.0 0.00 0.00 0.00 31 1010.0
20240226045530 43 202 1.0 3.0 0.00 0.00 0.00 31 1010.0
20240226045053 43 202 2.0 3.0 0.00 0.00 0.00 31 1010.1
20240226044553 43 207 1.0 2.0 0.00 0.00 0.00 32 1010.1
20240226044041 43 203 1.0 2.0 0.00 0.00 0.00 32 1010.1
20240226043549 44 203 1.0 3.0 0.00 0.00 0.00 31 1010.0
20240226043030 44 203 2.0 3.0 0.00 0.00 0.00 30 1010.0
20240226042525 45 203 1.0 3.0 0.00 0.00 0.00 31 1010.1
20240226042035 44 203 2.0 3.0 0.00 0.00 0.00 30 1010.1
20240226041531 44 203 2.0 3.0 0.00 0.00 0.00 31 1010.2
20240226041039 44 203 2.0 4.0 0.00 0.00 0.00 31 1010.2
20240226040540 43 202 2.0 4.0 0.00 0.00 0.00 32 1010.2
20240226040034 42 202 3.0 4.0 0.00 0.00 0.00 33 1010.3
20240226035556 43 202 1.0 5.0 0.00 0.00 0.00 33 1010.2
20240226035044 43 202 4.0 5.0 0.00 0.00 0.00 33 1010.2
20240226034535 43 150 2.0 4.0 0.00 0.00 0.00 34 1010.2
20240226034039 43 121 2.0 3.0 0.00 0.00 0.00 33 1010.1
20240226033541 43 121 2.0 3.0 0.00 0.00 0.00 34 1010.1
20240226033031 43 121 1.0 3.0 0.00 0.00 0.00 34 1010.2
20240226032535 43 121 1.0 3.0 0.00 0.00 0.00 34 1010.2
20240226032035 43 121 2.0 3.0 0.00 0.00 0.00 34 1010.2
20240226031558 44 121 3.0 3.0 0.00 0.00 0.00 33 1010.2
20240226031052 44 121 2.0 3.0 0.00 0.00 0.00 31 1010.1
20240226030552 45 121 2.0 2.0 0.00 0.00 0.00 30 1010.2
20240226030040 45 121 2.0 2.0 0.00 0.00 0.00 30 1010.1
20240226025531 45 121 1.0 3.0 0.00 0.00 0.00 30 1010.2
20240226025025 46 121 2.0 3.0 0.00 0.00 0.00 30 1010.3
20240226024540 46 121 1.0 2.0 0.00 0.00 0.00 30 1010.3
20240226024044 47 121 0.0 2.0 0.00 0.00 0.00 30 1010.2
20240226023538 47 121 1.0 2.0 0.00 0.00 0.00 28 1010.2
20240226023047 48 121 0.0 1.0 0.00 0.00 0.00 30 1010.4
20240226022535 48 121 0.0 2.0 0.00 0.00 0.00 28 1010.4
20240226022058 49 121 0.0 2.0 0.00 0.00 0.00 27 1010.4
20240226021546 50 121 1.0 2.0 0.00 0.00 0.00 27 1010.4
20240226021054 50 121 0.0 1.0 0.00 0.00 0.00 25 1010.4
20240226020551 51 121 0.0 1.0 0.00 0.00 0.00 25 1010.4
20240226020037 51 121 0.0 1.0 0.00 0.00 0.00 24 1010.4
20240226015542 52 121 0.0 0.0 0.00 0.00 0.00 24 1010.4
20240226015036 53 121 0.0 1.0 0.00 0.00 0.00 22 1010.4
20240226014524 54 121 0.0 1.0 0.00 0.00 0.00 21 1010.4
20240226014039 54 121 1.0 1.0 0.00 0.00 0.00 21 1010.4
20240226013525 55 121 1.0 2.0 0.00 0.00 0.00 19 1010.4
20240226013035 55 121 1.0 2.0 0.00 0.00 0.00 18 1010.4
20240226012557 56 121 0.0 2.0 0.00 0.00 0.00 18 1010.3
20240226012049 56 121 1.0 2.0 0.00 0.00 0.00 19 1010.3
20240226011547 57 121 1.0 3.0 0.00 0.00 0.00 17 1010.3
20240226011038 57 121 2.0 3.0 0.00 0.00 0.00 17 1010.2
20240226010540 58 121 0.0 2.0 0.00 0.00 0.00 16 1010.2
20240226010046 59 121 1.0 2.0 0.00 0.00 0.00 16 1010.2
20240226005528 60 121 0.0 0.0 0.00 0.00 0.00 16 1010.1
20240226005055 61 121 0.0 1.0 0.00 0.00 0.00 15 1010.0
20240226004534 62 121 0.0 2.0 0.00 0.00 0.00 15 1009.9
20240226004053 62 121 1.0 1.0 0.00 0.00 0.00 15 1010.0
20240226003547 63 121 1.0 2.0 0.00 0.00 0.00 14 1009.9
20240226003036 64 121 1.0 2.0 0.00 0.00 0.00 15 1009.8
20240226002548 65 121 1.0 2.0 0.00 0.00 0.00 15 1009.8
20240226002033 66 121 1.0 2.0 0.00 0.00 0.00 15 1009.7
20240226001545 66 121 0.0 2.0 0.00 0.00 0.00 14 1009.7
20240226001039 67 121 0.0 2.0 0.00 0.00 0.00 13 1009.7
20240226000535 68 121 1.0 3.0 0.00 0.00 0.00 12 1009.6
20240226000045 68 121 2.0 3.0 0.00 0.00 0.00 12 1009.5
20240225235531 69 121 1.0 3.0 0.00 0.00 0.00 12 1009.5
20240225235053 69 121 1.0 4.0 0.00 0.00 0.00 11 1009.4
20240225234552 70 121 3.0 4.0 0.00 0.00 0.00 11 1009.4
20240225234040 71 126 2.0 4.0 0.00 0.00 0.00 10 1009.4
20240225233534 72 131 2.0 4.0 0.00 0.00 0.00 10 1009.4
20240225233042 72 137 1.0 3.0 0.00 0.00 0.00 9 1009.3
20240225232533 72 137 2.0 3.0 0.00 0.00 0.00 9 1009.4
20240225232026 72 137 1.0 3.0 0.00 0.00 0.00 9 1009.4
20240225231535 72 137 1.0 3.0 0.00 0.00 0.00 9 1009.3
20240225231031 72 137 1.0 3.0 0.00 0.00 0.00 10 1009.3
20240225230542 72 137 1.0 4.0 0.00 0.00 0.00 9 1009.3
20240225230100 72 137 2.0 4.0 0.00 0.00 0.00 9 1009.4
20240225225540 72 178 3.0 4.0 0.00 0.00 0.00 9 1009.5
20240225225036 71 44 2.0 3.0 0.00 0.00 0.00 10 1009.5
20240225224555 71 320 1.0 4.0 0.00 0.00 0.00 9 1009.6
20240225224040 72 324 2.0 4.0 0.00 0.00 0.00 9 1009.6
20240225223540 72 165 2.0 5.0 0.00 0.00 0.00 9 1009.6
20240225223028 71 165 3.0 5.0 0.00 0.00 0.00 9 1009.6
20240225222537 71 165 2.0 4.0 0.00 0.00 0.00 9 1009.7
20240225222024 71 289 1.0 4.0 0.00 0.00 0.00 10 1009.7
20240225221536 71 294 1.0 7.0 0.00 0.00 0.00 9 1009.6
20240225221050 71 227 2.0 4.0 0.00 0.00 0.00 9 1009.7
20240225220537 71 213 1.0 5.0 0.00 0.00 0.00 9 1009.6
20240225220044 71 290 3.0 6.0 0.00 0.00 0.00 9 1009.6
20240225215547 71 244 2.0 9.0 0.00 0.00 0.00 9 1009.7
20240225215028 71 235 4.0 9.0 0.00 0.00 0.00 9 1009.7
20240225214541 72 238 4.0 6.0 0.00 0.00 0.00 9 1009.8
20240225214036 72 341 1.0 8.0 0.00 0.00 0.00 9 1009.8
20240225213526 72 284 4.0 8.0 0.00 0.00 0.00 10 1009.9
20240225213044 73 344 3.0 6.0 0.00 0.00 0.00 9 1009.9
20240225212530 73 260 4.0 7.0 0.00 0.00 0.00 9 1009.9
20240225212052 73 300 2.0 6.0 0.00 0.00 0.00 9 1009.9
20240225211546 72 314 1.0 9.0 0.00 0.00 0.00 9 1009.9
20240225211037 73 319 2.0 7.0 0.00 0.00 0.00 9 1009.8
20240225210547 72 208 1.0 7.0 0.00 0.00 0.00 9 1009.9
20240225210037 73 157 4.0 9.0 0.00 0.00 0.00 9 1009.9
20240225205544 72 238 4.0 9.0 0.00 0.00 0.00 9 1009.9
20240225205027 72 247 2.0 7.0 0.00 0.00 0.00 9 1010.0
20240225204525 72 196 4.0 7.0 0.00 0.00 0.00 9 1009.9
20240225204044 72 286 4.0 7.0 0.00 0.00 0.00 9 1009.9
20240225203535 72 264 2.0 5.0 0.00 0.00 0.00 9 1010.0
20240225203042 72 299 2.0 7.0 0.00 0.00 0.00 9 1010.0
20240225202535 71 198 5.0 7.0 0.00 0.00 0.00 9 1010.0
20240225202053 71 218 3.0 7.0 0.00 0.00 0.00 9 1010.0
20240225201537 71 203 2.0 8.0 0.00 0.00 0.00 9 1010.1
20240225201043 71 211 5.0 8.0 0.00 0.00 0.00 9 1010.2
20240225200542 71 240 3.0 7.0 0.00 0.00 0.00 9 1010.3
20240225200028 71 304 4.0 6.0 0.00 0.00 0.00 9 1010.4
20240225195534 70 264 2.0 8.0 0.00 0.00 0.00 10 1010.4
20240225195055 70 338 6.0 10.0 0.00 0.00 0.00 9 1010.5
20240225194557 70 327 4.0 10.0 0.00 0.00 0.00 9 1010.6
20240225194041 71 320 5.0 10.0 0.00 0.00 0.00 10 1010.6
20240225193529 71 236 1.0 6.0 0.00 0.00 0.00 10 1010.7
20240225193040 71 210 3.0 6.0 0.00 0.00 0.00 10 1010.8
20240225192532 71 176 2.0 6.0 0.00 0.00 0.00 10 1010.8
20240225192042 70 229 2.0 7.0 0.00 0.00 0.00 10 1010.8
20240225191545 70 267 3.0 7.0 0.00 0.00 0.00 10 1011.0
20240225191035 70 290 2.0 7.0 0.00 0.00 0.00 10 1011.1
20240225190554 70 250 1.0 4.0 0.00 0.00 0.00 10 1011.1
20240225190036 70 340 2.0 8.0 0.00 0.00 0.00 11 1011.2
20240225185544 69 196 2.0 8.0 0.00 0.00 0.00 11 1011.2
20240225185030 69 232 2.0 5.0 0.00 0.00 0.00 12 1011.3
20240225184542 69 282 1.0 7.0 0.00 0.00 0.00 12 1011.4
20240225184046 69 275 3.0 5.0 0.00 0.00 0.00 12 1011.5
20240225183535 69 335 1.0 6.0 0.00 0.00 0.00 11 1011.6
20240225183057 69 264 3.0 7.0 0.00 0.00 0.00 12 1011.8
20240225182539 68 250 4.0 10.0 0.00 0.00 0.00 13 1011.9
20240225182024 68 214 4.0 8.0 0.00 0.00 0.00 13 1011.9
20240225181537 67 259 5.0 8.0 0.00 0.00 0.00 13 1012.0
20240225181040 67 281 4.0 9.0 0.00 0.00 0.00 13 1012.1
20240225180533 67 234 5.0 9.0 0.00 0.00 0.00 15 1012.2
20240225180041 67 250 5.0 8.0 0.00 0.00 0.00 15 1012.2
20240225175538 66 200 2.0 9.0 0.00 0.00 0.00 15 1012.2
20240225175023 65 215 5.0 10.0 0.00 0.00 0.00 16 1012.3
20240225174534 65 221 5.0 10.0 0.00 0.00 0.00 16 1012.3
20240225174031 65 217 7.0 11.0 0.00 0.00 0.00 16 1012.3
20240225173543 64 229 6.0 11.0 0.00 0.00 0.00 18 1012.3
20240225173034 64 178 5.0 11.0 0.00 0.00 0.00 18 1012.4
20240225172526 64 227 5.0 15.0 0.00 0.00 0.00 17 1012.5
20240225172031 63 215 4.0 10.0 0.00 0.00 0.00 18 1012.5
20240225171544 63 183 5.0 10.0 0.00 0.00 0.00 19 1012.5
20240225171031 62 208 7.0 11.0 0.00 0.00 0.00 20 1012.6
20240225170523 62 181 6.0 11.0 0.00 0.00 0.00 20 1012.6
20240225170031 62 220 7.0 11.0 0.00 0.00 0.00 20 1012.7
20240225165523 62 226 4.0 10.0 0.00 0.00 0.00 22 1012.8
20240225165033 61 216 7.0 10.0 0.00 0.00 0.00 21 1012.8
20240225164546 61 192 6.0 10.0 0.00 0.00 0.00 21 1012.9
20240225164032 60 209 4.0 10.0 0.00 0.00 0.00 22 1012.8
20240225163528 59 208 5.0 8.0 0.00 0.00 0.00 24 1012.8
20240225163053 59 228 4.0 11.0 0.00 0.00 0.00 25 1012.8
20240225162559 58 213 7.0 11.0 0.00 0.00 0.00 25 1012.8
20240225162037 57 218 4.0 9.0 0.00 0.00 0.00 26 1012.8
20240225161542 57 213 4.0 9.0 0.00 0.00 0.00 26 1012.9
20240225161041 55 223 2.0 10.0 0.00 0.00 0.00 30 1012.8
20240225160559 55 217 6.0 10.0 0.00 0.00 0.00 29 1012.8
20240225160058 53 214 4.0 8.0 0.00 0.00 0.00 33 1012.7
20240225155545 52 221 3.0 6.0 0.00 0.00 0.00 34 1012.8
20240225155050 51 254 3.0 8.0 0.00 0.00 0.00 34 1012.9
20240225154536 50 224 4.0 8.0 0.00 0.00 0.00 35 1012.9
20240225154041 49 255 3.0 8.0 0.00 0.00 0.00 38 1012.9
20240225153523 47 262 1.0 4.0 0.00 0.00 0.00 42 1012.9
20240225153034 46 247 2.0 5.0 0.00 0.00 0.00 43 1012.9
20240225152553 44 229 2.0 5.0 0.00 0.00 0.00 44 1012.9
20240225152045 43 250 2.0 4.0 0.00 0.00 0.00 48 1012.9
20240225151552 41 232 2.0 5.0 0.00 0.00 0.00 49 1012.7
20240225151038 40 209 3.0 5.0 0.00 0.00 0.00 51 1012.7
20240225150539 39 227 2.0 3.0 0.00 0.00 0.00 52 1012.8
20240225150043 38 248 1.0 3.0 0.00 0.00 0.00 52 1012.8
20240225145528 37 243 1.0 5.0 0.00 0.00 0.00 52 1012.7
20240225145036 36 218 3.0 5.0 0.00 0.00 0.00 53 1012.7
20240225144558 35 209 3.0 4.0 0.00 0.00 0.00 54 1012.6
20240225144050 34 247 2.0 4.0 0.00 0.00 0.00 56 1012.5
20240225143543 32 246 1.0 4.0 0.00 0.00 0.00 58 1012.6
20240225143034 31 244 1.0 4.0 0.00 0.00 0.00 59 1012.5
20240225142538 31 232 1.0 4.0 0.00 0.00 0.00 59 1012.4
20240225142025 30 232 2.0 5.0 0.00 0.00 0.00 60 1012.2
20240225141533 30 206 3.0 5.0 0.00 0.00 0.00 60 1012.2
20240225141033 29 211 4.0 5.0 0.00 0.00 0.00 60 1012.1
20240225140524 29 207 3.0 4.0 0.00 0.00 0.00 60 1012.1
20240225140040 28 223 2.0 4.0 0.00 0.00 0.00 61 1012.1
20240225135540 28 203 2.0 5.0 0.00 0.00 0.00 61 1012.0